Home > Weather > Canberra > Past weeks

Flag for Australia Weather for the Past 2 Weeks in Canberra, Australian Capital Territory, Australia

Now
73 °F

Clear.


Feels Like: 77 °F
Forecast: 57 / 87 °F
Wind: 1 mph from East

Location: Canberra Airport

Current Time: Feb 13, 2016 at 10:24:32 PM

Latest Report: Feb 13, 2016 at 10:00 PM


Visibility: N/A

Pressure: 29.86 "Hg (27.94 "Hg at 577m altitude)

Humidity: 57%

Dew point: 57 °F

Location of CanberraLocation

Historic Weather in Canberra — Graph

°F

Canberra Temperature Yesterday

Maximum temperature yesterday: 82 °F (at 2:00 PM)
Minimum temperature yesterday: 59 °F (at 5:00 AM)
Average temperature yesterday: 71 °F

High & Low Weather Summary for the Past Weeks

 TemperatureHumidityPressure
High90 °F (Feb 13, 4:00 PM)100% (Jan 30, 12:00 AM)30.21 "Hg (Jan 30, 12:00 AM)
Low50 °F (Feb 2, 5:30 AM)22% (Feb 13, 5:00 PM)29.56 "Hg (Jan 30, 7:02 PM)
Average66 °F72%29.93 "Hg
* Reported Jan 29 9:00 PM — Feb 13 9:00 PM, Canberra, Weather by CustomWeather, © 2016

Note: Actual official high and low records may vary slightly from our data, if they occured in-between our weather recording intervals... More about our weather records

Advertising

Canberra Weather History for the Previous 24 Hours

 ConditionsComfort  
Time TempWeatherWind HumidityBarometerVisibility
9:00 PM
Sat, Feb 13
77 °FClear.5 mph51%29.83 "HgN/A
8:30 PM75 °FClear.6 mph54%29.83 "HgN/A
8:00 PM81 °FClear.5 mph42%29.83 "HgN/A
7:30 PM84 °FSunny.6 mph33%29.83 "HgN/A
7:00 PM86 °FSunny.8 mph33%29.83 "HgN/A
6:30 PM88 °FSunny.8 mph31%29.83 "HgN/A
6:00 PM88 °FSunny.10 mph27%29.83 "Hg10 mi
5:30 PM88 °FSunny.12 mph27%29.83 "Hg10 mi
5:00 PM90 °FSunny.14 mph22%29.86 "Hg10 mi
4:30 PM88 °FSunny.14 mph27%29.86 "Hg10 mi
4:00 PM90 °FSunny.10 mph27%29.86 "Hg10 mi
3:00 PM88 °FSunny.13 mph31%29.89 "Hg10 mi
2:30 PM86 °FSunny.15 mph40%29.89 "Hg10 mi
2:00 PM86 °FSunny.15 mph40%29.92 "Hg10 mi
1:00 PM82 °FPassing clouds.9 mph42%29.92 "HgN/A
12:30 PM82 °FPassing clouds.13 mph45%29.95 "HgN/A
12:00 PM81 °FPassing clouds.8 mph51%29.95 "HgN/A
11:30 AM81 °FPassing clouds.12 mph54%29.98 "HgN/A
11:00 AM79 °FPassing clouds.7 mph58%29.98 "HgN/A
10:00 AM72 °FPassing clouds.3 mph69%29.98 "HgN/A
9:00 AM68 °FPassing clouds.1 mph83%30.01 "HgN/A
8:30 AM66 °FPassing clouds.5 mph88%30.01 "HgN/A
8:00 AM64 °FLight fog.3 mph88%30.01 "HgN/A
7:30 AM63 °FLight fog.5 mph94%29.98 "HgN/A
7:00 AM59 °FFog.3 mph100%29.98 "HgN/A
6:00 AM59 °FFog.No wind100%29.98 "HgN/A
5:00 AM59 °FClear.No wind100%29.98 "HgN/A
4:02 AM61 °FClear.No wind94%29.98 "Hg4 mi
3:30 AM63 °FClear.2 mph94%29.98 "HgN/A
3:00 AM63 °FClear.No wind100%29.98 "HgN/A
2:30 AM63 °FClear.No wind94%29.98 "HgN/A
2:00 AM63 °FClear.7 mph100%29.98 "HgN/A
1:30 AM64 °FClear.6 mph94%29.98 "HgN/A
1:00 AM64 °FClear.7 mph100%30.01 "HgN/A
12:00 AM66 °FClear.5 mph88%30.01 "HgN/A
11:30 PM
Fri, Feb 12
68 °FClear.6 mph88%30.01 "HgN/A
11:00 PM70 °FClear.5 mph83%30.01 "HgN/A
10:30 PM70 °FClear.5 mph83%30.01 "HgN/A
10:00 PM70 °FClear.5 mph83%30.01 "HgN/A
Weather by CustomWeather, © 2016

See weather overviewHow to use our weather pages